Location: ??????
(41.3747°N, 22.5491°E)
Time: 05:24:54
(UTC+00:00)

USA 281 - Pass Details

Date: 01 December 2020
Orbit: 1074 x 1084 km, 106.0° (Epoch: 08 January)

Event Time Altitude Azimuth Distance (km) Brightness Sun altitude
Rises 17:16:12 0° 152° (SSE) 3,869 5.9 -24.7°
Reaches altitude 10° 17:18:42 10° 152° (SSE) 2,915 5.3 -25.2°
Maximum altitude 17:25:16 85° 65° (ENE) 1,090 3.1 -26.4°
Drops below altitude 10° 17:31:51 10° 338° (NNW) 2,925 5.7 -27.7°
Sets 17:34:22 0° 338° (NNW) 3,883 6.3 -28.1°
